This demonstration page uses our WeatherBlox Daily Observations layout. Learn more.

Left ArrowRight Arrow

39.92423, -83.80882

Hourly Observations for January 15, 2021

Temp ( °F °C ) Dew Point ( °F °C ) Humidity (%) Winds ( mph kmh ) Pressure ( in mb ) Visibility ( mi km ) Precip ( " mm )
12:56 am 00:56 Mostly Cloudy 41 5 33 0.6 73 73 SSE 7 11 29.59 1002 10 16.0934 0 0
1:56 am 01:56 Cloudy 39 3.9 34 1.1 82 82 SSE 6 9 29.58 1002 10 16.0934 0 0
2:56 am 02:56 Cloudy 42 5.6 34 1.1 73 73 S 7 11 29.58 1002 10 16.0934 0 0
3:56 am 03:56 Cloudy 43 6.1 34 1.1 71 71 S 8 13 29.56 1001 10 16.0934 0 0
4:56 am 04:56 Cloudy 40 4.4 35 1.7 83 83 SSE 6 9 29.54 1000 10 16.0934 0 0
5:21 am 05:21 Cloudy with Light Rain 41 5 36 2 81 81 S 7 11 29.54 1000 10 16.0934 0.001 0.001
5:56 am 05:56 Cloudy with Light Rain 41 5 36 2.2 82 82 SSW 6 9 29.52 1000 10 16.0934 0.001 0.001
6:22 am 06:22 Cloudy with Light Rain 37 3 37 3 100 100 WSW 13 20 29.56 1001 7 11.26538 0.001 0.001
6:29 am 06:29 Cloudy with Light Rain 37 3 37 3 100 100 WSW 14 22 29.56 1001 6 9.65604 0.001 0.001
6:56 am 06:56 Cloudy with Light Rain 35 1.7 35 1.7 100 100 W 9 15 29.56 1001 10 16.0934 0.01 0.254
7:12 am 07:12 Cloudy with Light Rain 36 2 36 2 100 100 W 9 15 29.58 1002 10 16.0934 0.001 0.001
7:56 am 07:56 Cloudy with Light Snow 33 0.6 33 0.6 100 100 WSW 8 13 29.57 1002 4 6.43736 0.02 0.508
8:08 am 08:08 Cloudy with Light Snow 34 1 34 1 100 100 WSW 6 9 29.59 1002 2 3.21868 0.01 0.254
8:39 am 08:39 Cloudy with Light Snow 32 0 32 0 100 100 SW 5 7 29.59 1002 3 4.82802 0.02 0.508
8:56 am 08:56 Cloudy with Light Snow 33 0.6 33 0.6 100 100 SW 5 7 29.57 1001 2.5 4.02335 0.03 0.762
9:06 am 09:06 Cloudy with Light Snow 34 1 34 1 100 100 SSW 6 9 29.6 1002 2.5 4.02335 0.001 0.001
9:23 am 09:23 Cloudy with Light Snow 34 1 34 1 100 100 SSW 6 9 29.61 1003 4 6.43736 0.01 0.254
9:56 am 09:56 Cloudy 33 0.6 33 0.6 100 100 S 7 11 29.59 1002 7 11.26538 0.02 0.508
10:03 am 10:03 Cloudy with Light Rain 34 1 34 1 100 100 SSW 9 15 29.62 1003 5 8.0467 0.01 0.254
10:31 am 10:31 Cloudy 34 1 34 1 100 100 SW 9 15 29.61 1003 10 16.0934 0.01 0.254
10:56 am 10:56 Cloudy 36 2.2 36 2.2 100 100 SSW 12 19 29.59 1002 10 16.0934 0.02 0.508
11:16 am 11:16 Cloudy 36 2 36 2 100 100 SW 10 17 29.6 1003 10 16.0934 0 0
11:34 am 11:34 Mostly Cloudy 37 3 34 1 87 87 W 14 22 29.59 1002 10 16.0934 0 0
11:45 am 11:45 Mostly Sunny 37 3 32 0 81 81 WSW 14 22 29.59 1002 10 16.0934 0 0
11:56 am 11:56 Sunny 39 3.9 32 0 76 76 WSW 14 22 29.57 1001 10 16.0934 0 0
12:56 pm 12:56 Mostly Sunny 40 4.4 29 -1.7 65 65 SW 16 26 29.56 1001 10 16.0934 0 0
1:56 pm 13:56 Mostly Cloudy 41 5 28 -2.2 60 60 SW 16 26 29.57 1001 10 16.0934 0 0
2:56 pm 14:56 Cloudy with Light Rain 40 4.4 27 -2.8 60 60 WSW 8 13 29.57 1001 10 16.0934 0.001 0.001
3:56 pm 15:56 Mostly Cloudy 40 4.4 25 -3.9 55 55 SSW 10 17 29.59 1002 10 16.0934 0.001 0.001
4:13 pm 16:13 Cloudy with Light Rain 36 2 28 -2 75 75 S 9 15 29.63 1004 2.5 4.02335 0.001 0.001
4:27 pm 16:27 Cloudy with Light Snow 36 2 30 -1 81 81 SSW 6 9 29.63 1004 5 8.0467 0.001 0.001
4:56 pm 16:56 Mostly Cloudy with Light Rain 37 2.8 28 -2.2 70 70 W 15 24 29.63 1003 10 16.0934 0.001 0.001
5:56 pm 17:56 Clear 34 1.1 28 -2.2 79 79 S 3 6 29.64 1004 10 16.0934 0.001 0.001
6:56 pm 18:56 Clear 34 1.1 26 -3.3 73 73 S 5 7 29.66 1004 10 16.0934 0 0
7:56 pm 19:56 Mostly Cloudy 32 0 28 -2.2 85 85 S 5 7 29.67 1005 10 16.0934 0 0
8:56 pm 20:56 Mostly Clear 31 -0.6 29 -1.7 92 92 SSE 5 7 29.66 1005 10 16.0934 0 0
9:56 pm 21:56 Clear 29 -1.7 28 -2.2 96 96 SSE 6 9 29.66 1004 10 16.0934 0 0
10:56 pm 22:56 Cloudy 31 -0.6 29 -1.7 92 92 SSE 7 11 29.65 1004 10 16.0934 0 0
11:56 pm 23:56 Mostly Cloudy 31 -0.6 29 -1.7 92 92 S 7 11 29.64 1004 10 16.0934 0.001 0.001

Powered by AerisWeather